Regional Weather Roundup
Issued by NWS

Home | Current Version | Previous Version | Text Only | Print | Product List | Glossary On
Versions: 1 2 3 4 5 6 7 8 9 10 11 12 13 14 15 16 17 18 19 20 21 22 23 24 25 26 27 28 29 30 31 32 33 34 35 36 37 38 39 40 41 42 43 44 45 46 47 48 49 50
000
ASHW40 PHFO 270932
RWRHI

WEATHER ROUNDUP FOR HAWAII
NATIONAL WEATHER SERVICE HONOLULU HI
1100 PM HST SUN FEB 26 2017

THIS IS AN AUTOMATED REPORT THAT HAS NOT BEEN QUALITY CONTROLLED.

NOTE..."FAIR" INDICATES FEW OR NO CLOUDS BELOW 12,000 FEET WITH NO
SIGNIFICANT WEATHER AND/OR OBSTRUCTIONS TO VISIBILITY.

* - THESE SITES REPORT LIMITED FIELDS

HIZ001>004-271000-
KAUAI-NIIHAU-

CITY           SKY/WX    TMP DP  RH WIND       PRES   REMARKS
LIHUE APT      MOCLDY    73  65  75 E14       30.06F
PORT ALLEN*      N/A     72 N/A N/A NE9         N/A
POIPU*           N/A     73 N/A N/A NE7G14      N/A
PRINCEVILLE*     N/A     68 N/A N/A S3          N/A
KOKOLE POINT*  NOT AVBL
MOLOAA DAIRY*    N/A     72  64  78 E9          N/A
WAIMEA HTS*    NOT AVBL
PUU OPAE*      NOT AVBL
PUU LUA*       NOT AVBL
MAKAHA RIDGE*    N/A     64  55  72 CALM        N/A
$$

HIZ005>011-271000-
OAHU-

CITY           SKY/WX    TMP DP  RH WIND       PRES   REMARKS
HONOLULU       PTCLDY    72  63  73 NE9       30.04F
KALAELOA       LGT RAIN  69  61  75 NE5       30.06F
KANEOHE MCB    PTCLDY    71  65  81 VRB6      30.04
WHEELER FIELD  FAIR      62  60  94 CALM      30.05
BELLOWS*         N/A    N/A N/A N/A E15         N/A
KAHUKU*          N/A    N/A N/A N/A E8G14       N/A
WHEELER*       NOT AVBL
WAIANAE HARBOR NOT AVBL
DILLINGHAM*    NOT AVBL
KAHUKU TRN*      N/A     82  73  74 W6G17       N/A
KAWAILOA*        N/A     66  61  82 E7G16       N/A
KII*             N/A     73  64  73 E15G21      N/A
MAKUA RANGE*     N/A     82  77  83 NW3G10      N/A  HX  91
OAHU FOREST NW NOT AVBL
SCHOFIELD BRK*   N/A    N/A N/A N/A MISG        N/A
SCHOFIELD S*   NOT AVBL
WAIANAE VLY*   NOT AVBL
KUAOKALA*      NOT AVBL
HONOULIUULI*   NOT AVBL
MOKUOLOE IS*   NOT AVBL
PALEHUA*       NOT AVBL
WAIAWA PHB*    NOT AVBL
$$

HIZ012>013-271000-
MOLOKAI-

CITY           SKY/WX    TMP DP  RH WIND       PRES   REMARKS
MOLOKAI AIRPT  CLEAR     69  61  75 NE6       30.06F
KALAUPAPA      NOT AVBL
MAKAPULAPAI*     N/A     72  63  73 E18G25      N/A
MOLOKAI 1*     NOT AVBL
PUU ALII*        N/A     54  53  97 E2          N/A
$$

HIZ016-271000-
KAHOOLAWE-

CITY           SKY/WX    TMP DP  RH WIND       PRES   REMARKS
KAHOOLAWE*     NOT AVBL
HAKIOAWA*        N/A     65  62  91 MISG      30.47S
HONOKANAIA*      N/A     72  62  71 NE12G21   29.99S
KANELOA*         N/A     70  63  78 NE14G21   30.12S
KEALIALALO*    NOT AVBL
LUA MAKIKA*    NOT AVBL
$$

HIZ014>015-271000-
LANAI-

CITY           SKY/WX    TMP DP  RH WIND       PRES   REMARKS
LANAI CITY       N/A     64  61  90 NE7       30.09F
LANAI 1*       NOT AVBL
$$

HIZ017>028-271000-
MAUI-

CITY           SKY/WX    TMP DP  RH WIND       PRES   REMARKS
KAHULUI        PTCLDY    70  62  76 NE10      30.05F
KAPALUA-W MAUI NOT AVBL
HANA AIRPORT   CLOUDY    72  64  78 E7        30.10S
HANA*            N/A     72 N/A N/A E6G12       N/A
HALEAKALA SUMM   N/A     37  34  87 SE8         N/A
MAALAEA BAY*     N/A     72 N/A N/A N14G23      N/A
HALEAKALA*     NOT AVBL
KAUPO GAP*     NOT AVBL
KULA 1*          N/A     45  34  65 NE3         N/A
$$

HIZ023>026-271000-
BIG ISLAND OF HAWAII COAST AND LOWER SLOPES-

CITY           SKY/WX    TMP DP  RH WIND       PRES   REMARKS
KAILUA KONA    PTCLDY    71  56  58 NE5       30.03R
HILO           RAIN      70  66  88 S3        30.07S FOG
HONOKAA*         N/A     64 N/A N/A VRB1        N/A
KAWAIHAE MWT*    N/A     72 N/A N/A N5          N/A
KAWAIHAE*        N/A     73 N/A N/A N2        30.03S
SOUTH POINT*     N/A     68 N/A N/A N12         N/A
UPOLU AIRPORT* NOT AVBL
KAMUELA*       MOSUNNY   61  59  94 NE14      30.12F
HAKALAU*         N/A     46  43  87 W3          N/A
KALOKO-HONOKO*   N/A     70  59  68 NE5       30.02S
PALI 2*          N/A     61  57  88 SW6         N/A
KEALAKOMO*       N/A     73  64  73 NE10        N/A
KAUPULEHU*     NOT AVBL
KAPAPALA*        N/A     61  59  93 N2          N/A
LOWER KAHUKU*    N/A     59  52  77 VRB3G12     N/A
PUHE CS*         N/A     72  57  60 NE2         N/A
PUHO CS*         N/A     69  58  67 E2          N/A
PTA KEAMUKU*     N/A     59  52  77 CALM        N/A
WAIKOLOA*      NOT AVBL
$$

HIZ027>028-271000-
BIG ISLAND OF HAWAII INTERIOR AND SUMMMITS-

CITY           SKY/WX    TMP DP  RH WIND       PRES   REMARKS
BRADSHAW FIELD CLOUDY    47  44  87 SE3       30.32F
MK VISITOR CEN NOT AVBL
MAUNA KEA*       N/A     28   5  37 W23         N/A  WCI  14
MAUNA LOA*       N/A     39 -15   9 MISG        N/A
MAUNA LOA 1*   NOT AVBL
PTA KIPUKA*      N/A     52  50  93 SE2         N/A
PTA RANGE 17*    N/A     61  55  82 E5G10       N/A
PTA WEST*        N/A     54  48  82 E9          N/A
NENE CABIN*      N/A     46  39  76 N2          N/A
AHUMOA*        NOT AVBL
PTA PORTABLE*  NOT AVBL
PUU MALI*        N/A     52  43  71 E5          N/A
$$

HIC003-271000-
NORTHWEST ISLANDS-

CITY           SKY/WX    TMP DP  RH WIND       PRES   REMARKS
MIDWAY ISLAND  CLEAR     61  54  77 NE6       30.04S
MIDWAY NOS*      N/A     64 N/A N/A MISG      30.01F
FRENCH FRIGATE NOT AVBL
$$

PHZ110>124-180-271000-
BUOY REPORTS

STATION/POSITION TIME  TEMP    WIND        PRES    WAVE   SWELL
                       AIR SEA DIR/SP/G            HT/PER HT/DIR
                 (UTC) (F)     (DEG/KT/KT) (MB)    (FT/S) (FT/D)
BUOY 51001       0910   72 73  120/ 12/ 16 1017.5
BUOY 51101       0850   72 72  130/ 10/ 14 1018.1F   8/13   8/330
BUOY 51100       NOT AVBL
BUOY 51002       0910   76 77   70/ 16/ 19 1015.8
BUOY 51003       0850   73 75  140/ 17/ 21 1015.8F   7/14   5/280
BUOY 51004       0850      76   80/ 14/ 17 1017.4R   6/14   5/350
BARBERS PT BUOY  NOT AVBL
WAIMEA BAY BUOY  0902      74                N/A     7/14   7/330
KAILUA BAY BUOY  0904      75                N/A     6/14   3
LANAI BUOY       0915      76                N/A     3/13   2/270
BARBERS PT 2     NOT AVBL
PAUWELA MAUI     0909      75                N/A     7/14   5/340
HILO             0912      76                N/A     6/13   3/340
KANEOHE BAY BUOY 0906      75                N/A     5/11   3/ 10
HANALEI KAUAI    0852      76                N/A     7/14   5/310
KAHULUI HARBOR   0900   73 75   50/  7/ 16 1017.8
HONOLULU HARBOR  0900   73 75   90/  2/  4 1018.2
KILO NALU        NOT AVBL
HILO HARBOR      0900   69 75  160/ 10/ 13 1018.1
MOKUOLOE         0836   73 74  100/  7/ 11 1017.8F
NAWILIWILI       0900   74      80/ 13/ 15 1017.5
WHOTS BUOY       NOT AVBL
BUOY 51028       NOT AVBL
$$

......................KEY........................................
  SKY/WX - SKY CONDITIONS/PRESENT WEATHER
  TMP    - TEMPERATURE IN FAHRENHEIT
  DWPT   - DEWPOINT IN FAHRENHEIT
  RH     - RELATIVE HUMIDITY IN PERCENT
  WIND   - DIRECTION AND SPEED /MPH FOR ISLANDS...KTS FOR BUOYS/
  PRES   - MEAN SEA LEVEL PRESSURE IN INCHES OF HG
  VSB    - VISIBILITY IN MILES
  HX     - HEAT INDEX
  WCI    - WIND CHILL INDEX
  VRB    - VARIABLE WIND DIRECTION
  N/A    - NOT AVAILABLE



USA.gov is the U.S. government's official web portal to all federal, state and local government web resources and services.